Location: Newark
(34.0000°S, 64.0000°W)
Time: 15:25:52
(UTC+00:00)

Envisat - Visible Passes

Search period start: 08 March 2021 00:00
Search period end: 18 March 2021 00:00
Orbit: 764 x 766 km, 98.1° (Epoch: 07 March)

Date Brightness Start Highest point End Pass type
(mag) Time Alt. Az. Time Alt. Az. Time Alt. Az.
08 Mar 3.4 08:57:16 10° NNE 09:02:18 67° ESE 09:07:25 10° S visible
09 Mar 5.1 08:21:23 10° NE 08:25:42 28° ESE 08:30:03 10° SSE visible
10 Mar 6.2 07:47:12 10° E 07:49:18 12° ESE 07:51:24 10° SE visible
10 Mar 3.0 09:22:36 10° N 09:27:40 67° W 09:32:47 10° SSW visible
10 Mar 6.2 23:16:18 10° SSW 23:18:58 14° WSW 23:21:37 10° W visible
11 Mar 3.9 08:46:00 10° NNE 08:50:55 51° ESE 08:55:54 10° S visible
12 Mar 5.5 08:10:29 10° ENE 08:14:22 22° ESE 08:18:17 10° SSE visible
13 Mar 3.0 09:11:08 10° NNE 09:16:14 87° W 09:21:25 10° SSW visible
13 Mar 6.0 23:04:14 10° SSW 23:07:40 18° WSW 23:11:06 10° WNW visible
14 Mar 4.4 08:34:50 10° NE 08:39:33 39° ESE 08:44:20 10° S visible
15 Mar 5.8 07:59:45 10° ENE 08:03:04 18° ESE 08:06:24 10° SSE visible
15 Mar 3.3 09:36:46 10° N 09:41:39 47° W 09:46:36 10° SSW visible
16 Mar 3.3 08:59:45 10° NNE 09:04:50 73° ESE 09:09:58 10° S visible
16 Mar 5.8 22:52:21 10° SSW 22:56:21 23° WSW 23:00:20 10° WNW visible
17 Mar 4.9 08:23:46 10° NE 08:28:12 31° ESE 08:32:41 10° S visible
